Time,TemperatureF,DewpointF,PressureIn,WindDirection,WindDirectionDegrees,WindSpeedMPH,WindSpeedGustMPH,Humidity,HourlyPrecipIn,Conditions,Clouds,dailyrainin,SoftwareType,DateUTC
2013-02-26 00:07:00,27.7,25.9,30.20,NW,315,0.0,-999.0,93,-99.99,,,0.00,Acu-Link.com,2013-02-26 05:07:00,
2013-02-26 00:22:00,27.7,25.9,30.20,ESE,112,0.0,-999.0,93,-99.99,,,0.00,Acu-Link.com,2013-02-26 05:22:00,
2013-02-26 00:37:00,27.5,25.7,30.21,ESE,112,0.0,-999.0,93,-99.99,,,0.00,Acu-Link.com,2013-02-26 05:37:00,
2013-02-26 00:53:00,27.3,25.5,30.21,ESE,112,0.0,-999.0,93,-99.99,,,0.00,Acu-Link.com,2013-02-26 05:53:00,
2013-02-26 01:08:00,27.3,25.5,30.20,NNW,337,0.0,-999.0,93,-99.99,,,0.00,Acu-Link.com,2013-02-26 06:08:00,
2013-02-26 01:23:00,27.3,25.5,30.21,ESE,112,0.0,-999.0,93,-99.99,,,0.00,Acu-Link.com,2013-02-26 06:23:00,
2013-02-26 01:39:00,27.1,25.4,30.21,SSW,202,0.0,-999.0,93,-99.99,,,0.00,Acu-Link.com,2013-02-26 06:39:00,
2013-02-26 01:54:00,27.1,25.4,30.20,NNE,22,0.0,-999.0,93,-99.99,,,0.00,Acu-Link.com,2013-02-26 06:54:00,
2013-02-26 02:09:00,27.1,25.4,30.20,NW,315,0.0,-999.0,93,-99.99,,,0.00,Acu-Link.com,2013-02-26 07:09:00,
2013-02-26 02:24:00,27.1,25.4,30.21,South,180,0.0,-999.0,93,-99.99,,,0.00,Acu-Link.com,2013-02-26 07:24:00,
2013-02-26 02:39:00,27.1,25.4,30.20,NNW,337,0.0,-999.0,93,-99.99,,,0.00,Acu-Link.com,2013-02-26 07:39:00,
2013-02-26 02:55:00,27.1,25.4,30.22,SW,225,0.0,-999.0,93,-99.99,,,0.00,Acu-Link.com,2013-02-26 07:55:00,
2013-02-26 03:10:00,27.0,25.3,30.23,NNW,337,0.0,-999.0,93,-99.99,,,0.00,Acu-Link.com,2013-02-26 08:10:00,
2013-02-26 03:26:00,27.0,25.3,30.23,NNE,22,0.0,-999.0,93,-99.99,,,0.00,Acu-Link.com,2013-02-26 08:26:00,
2013-02-26 03:41:00,26.8,25.1,30.23,NW,315,0.0,-999.0,93,-99.99,,,0.00,Acu-Link.com,2013-02-26 08:41:00,
2013-02-26 03:56:00,26.6,24.9,30.23,South,180,0.0,-999.0,93,-99.99,,,0.00,Acu-Link.com,2013-02-26 08:56:00,
2013-02-26 07:04:00,26.2,24.5,30.26,East,90,0.0,-999.0,93,-99.99,,,0.00,Acu-Link.com,2013-02-26 12:04:00,
2013-02-26 07:20:00,27.0,25.3,30.27,SW,225,0.0,-999.0,93,-99.99,,,0.00,Acu-Link.com,2013-02-26 12:20:00,
2013-02-26 07:35:00,28.2,26.4,30.28,NNW,337,0.0,-999.0,93,-99.99,,,0.00,Acu-Link.com,2013-02-26 12:35:00,
2013-02-26 07:50:00,29.3,27.5,30.27,NNW,337,0.0,-999.0,93,-99.99,,,0.00,Acu-Link.com,2013-02-26 12:50:00,
2013-02-26 08:05:00,31.3,29.3,30.27,NNE,22,0.0,-999.0,92,-99.99,,,0.00,Acu-Link.com,2013-02-26 13:05:00,
2013-02-26 08:20:00,32.9,30.0,30.29,NNW,337,0.0,-999.0,89,-99.99,,,0.00,Acu-Link.com,2013-02-26 13:20:00,
2013-02-26 08:36:00,34.0,30.5,30.28,NNW,337,0.0,-999.0,87,-99.99,,,0.00,Acu-Link.com,2013-02-26 13:36:00,
2013-02-26 08:51:00,35.1,31.6,30.28,WNW,292,0.0,-999.0,87,-99.99,,,0.00,Acu-Link.com,2013-02-26 13:51:00,
2013-02-26 09:06:00,36.5,32.4,30.29,NE,45,0.0,-999.0,85,-99.99,,,0.00,Acu-Link.com,2013-02-26 14:06:00,
2013-02-26 09:21:00,36.3,31.6,30.29,WSW,247,0.0,-999.0,83,-99.99,,,0.00,Acu-Link.com,2013-02-26 14:21:00,
2013-02-26 09:36:00,38.5,33.2,30.29,SSW,202,0.0,-999.0,81,-99.99,,,0.00,Acu-Link.com,2013-02-26 14:36:00,
2013-02-26 09:52:00,36.3,30.7,30.29,NNW,337,2.7,-999.0,80,-99.99,,,0.00,Acu-Link.com,2013-02-26 14:52:00,
2013-02-26 10:07:00,35.8,30.9,30.29,NNW,337,2.2,-999.0,82,-99.99,,,0.00,Acu-Link.com,2013-02-26 15:07:00,
2013-02-26 10:22:00,35.4,30.5,30.28,NNW,337,2.7,-999.0,82,-99.99,,,0.01,Acu-Link.com,2013-02-26 15:22:00,
2013-02-26 10:37:00,35.8,31.2,30.28,WNW,292,3.7,-999.0,83,-99.99,,,0.01,Acu-Link.com,2013-02-26 15:37:00,
2013-02-26 10:52:00,35.6,31.3,30.28,WNW,292,2.2,-999.0,84,-99.99,,,0.01,Acu-Link.com,2013-02-26 15:52:00,
2013-02-26 11:08:00,36.1,31.7,30.28,WNW,292,2.7,-999.0,84,-99.99,,,0.01,Acu-Link.com,2013-02-26 16:08:00,
2013-02-26 11:23:00,36.9,31.6,30.28,North,0,3.2,-999.0,81,-99.99,,,0.01,Acu-Link.com,2013-02-26 16:23:00,
2013-02-26 11:38:00,37.8,32.5,30.28,NW,315,1.7,-999.0,81,-99.99,,,0.02,Acu-Link.com,2013-02-26 16:38:00,
2013-02-26 11:53:00,37.2,31.9,30.27,East,90,2.2,-999.0,81,-99.99,,,0.03,Acu-Link.com,2013-02-26 16:53:00,
2013-02-26 12:09:00,37.8,30.6,30.27,North,0,3.2,-999.0,75,-99.99,,,0.03,Acu-Link.com,2013-02-26 17:09:00,
2013-02-26 12:24:00,37.6,30.1,30.26,North,0,4.2,-999.0,74,-99.99,,,0.04,Acu-Link.com,2013-02-26 17:24:00,
2013-02-26 12:39:00,38.8,31.2,30.26,North,0,2.2,-999.0,74,-99.99,,,0.05,Acu-Link.com,2013-02-26 17:39:00,
2013-02-26 12:55:00,38.7,30.8,30.27,NE,45,3.2,-999.0,73,-99.99,,,0.06,Acu-Link.com,2013-02-26 17:55:00,
2013-02-26 13:10:00,37.4,29.9,30.27,West,270,2.7,-999.0,74,-99.99,,,0.07,Acu-Link.com,2013-02-26 18:10:00,
2013-02-26 13:25:00,36.7,30.2,30.27,NE,45,3.7,-999.0,77,-99.99,,,0.07,Acu-Link.com,2013-02-26 18:25:00,
2013-02-26 13:40:00,37.6,31.1,30.26,WNW,292,4.2,-999.0,77,-99.99,,,0.08,Acu-Link.com,2013-02-26 18:40:00,
2013-02-26 13:55:00,38.1,30.9,30.26,NW,315,4.7,-999.0,75,-99.99,,,0.08,Acu-Link.com,2013-02-26 18:55:00,
2013-02-26 14:11:00,37.6,30.1,30.25,NNE,22,4.7,-999.0,74,-99.99,,,0.08,Acu-Link.com,2013-02-26 19:11:00,
2013-02-26 14:26:00,36.3,29.8,30.25,North,0,3.7,-999.0,77,-99.99,,,0.09,Acu-Link.com,2013-02-26 19:26:00,
2013-02-26 14:41:00,36.3,30.4,30.23,North,0,4.2,-999.0,79,-99.99,,,0.09,Acu-Link.com,2013-02-26 19:41:00,
2013-02-26 14:57:00,36.1,30.5,30.23,NW,315,4.7,-999.0,80,-99.99,,,0.09,Acu-Link.com,2013-02-26 19:57:00,
2013-02-26 15:27:00,36.1,30.5,30.23,NNW,337,5.8,-999.0,80,-99.99,,,0.09,Acu-Link.com,2013-02-26 20:27:00,
2013-02-26 15:43:00,36.0,31.0,30.22,NNE,22,2.7,-999.0,82,-99.99,,,0.10,Acu-Link.com,2013-02-26 20:43:00,
2013-02-26 15:58:00,35.6,30.7,30.22,NNE,22,3.2,-999.0,82,-99.99,,,0.10,Acu-Link.com,2013-02-26 20:58:00,
2013-02-26 16:13:00,35.2,30.3,30.22,NNE,22,3.7,-999.0,82,-99.99,,,0.10,Acu-Link.com,2013-02-26 21:13:00,
2013-02-26 16:28:00,34.9,30.0,30.23,WNW,292,4.2,-999.0,82,-99.99,,,0.10,Acu-Link.com,2013-02-26 21:28:00,
2013-02-26 16:44:00,34.3,29.7,30.22,NNE,22,2.7,-999.0,83,-99.99,,,0.10,Acu-Link.com,2013-02-26 21:44:00,
2013-02-26 16:59:00,34.2,29.9,30.21,NE,45,4.2,-999.0,84,-99.99,,,0.10,Acu-Link.com,2013-02-26 21:59:00,
2013-02-26 17:14:00,34.0,29.7,30.22,NNE,22,4.7,-999.0,84,-99.99,,,0.10,Acu-Link.com,2013-02-26 22:14:00,
2013-02-26 17:30:00,33.6,29.6,30.22,NNW,337,4.2,-999.0,85,-99.99,,,0.10,Acu-Link.com,2013-02-26 22:30:00,
2013-02-26 17:45:00,33.6,29.9,30.22,NW,315,3.2,-999.0,86,-99.99,,,0.10,Acu-Link.com,2013-02-26 22:45:00,
2013-02-26 18:00:00,33.4,30.0,30.22,NNE,22,3.7,-999.0,87,-99.99,,,0.10,Acu-Link.com,2013-02-26 23:00:00,
2013-02-26 18:15:00,33.1,29.7,30.22,WNW,292,4.2,-999.0,87,-99.99,,,0.10,Acu-Link.com,2013-02-26 23:15:00,
2013-02-26 18:30:00,32.9,29.5,30.21,NW,315,3.2,-999.0,87,-99.99,,,0.10,Acu-Link.com,2013-02-26 23:30:00,
2013-02-26 18:46:00,32.9,29.5,30.21,WNW,292,2.7,-999.0,87,-99.99,,,0.10,Acu-Link.com,2013-02-26 23:46:00,
2013-02-26 19:01:00,32.5,29.1,30.22,NE,45,3.7,-999.0,87,-99.99,,,0.10,Acu-Link.com,2013-02-27 00:01:00,
2013-02-26 19:16:00,32.5,29.1,30.22,ENE,67,1.1,-999.0,87,-99.99,,,0.10,Acu-Link.com,2013-02-27 00:16:00,
2013-02-26 19:32:00,32.4,29.0,30.22,NNE,22,1.7,-999.0,87,-99.99,,,0.10,Acu-Link.com,2013-02-27 00:32:00,
2013-02-26 19:47:00,32.4,28.7,30.22,NE,45,1.7,-999.0,86,-99.99,,,0.10,Acu-Link.com,2013-02-27 00:47:00,
2013-02-26 20:02:00,32.2,28.2,30.22,West,270,1.7,-999.0,85,-99.99,,,0.10,Acu-Link.com,2013-02-27 01:02:00,
2013-02-26 20:18:00,32.2,28.2,30.22,North,0,2.7,-999.0,85,-99.99,,,0.10,Acu-Link.com,2013-02-27 01:18:00,
2013-02-26 20:33:00,32.0,28.0,30.22,North,0,1.7,-999.0,85,-99.99,,,0.10,Acu-Link.com,2013-02-27 01:33:00,
2013-02-26 20:48:00,31.8,27.8,30.21,NNE,22,2.7,-999.0,85,-99.99,,,0.10,Acu-Link.com,2013-02-27 01:48:00,
2013-02-26 21:04:00,31.5,27.5,30.21,NE,45,2.7,-999.0,85,-99.99,,,0.10,Acu-Link.com,2013-02-27 02:04:00,
2013-02-26 21:34:00,31.1,27.1,30.20,NE,45,3.2,-999.0,85,-99.99,,,0.10,Acu-Link.com,2013-02-27 02:34:00,
2013-02-26 21:50:00,31.1,27.1,30.19,NNE,22,4.2,-999.0,85,-99.99,,,0.10,Acu-Link.com,2013-02-27 02:50:00,
2013-02-26 22:05:00,31.1,27.1,30.19,NNW,337,4.2,-999.0,85,-99.99,,,0.10,Acu-Link.com,2013-02-27 03:05:00,
2013-02-26 22:20:00,30.9,26.9,30.18,NE,45,4.7,-999.0,85,-99.99,,,0.10,Acu-Link.com,2013-02-27 03:20:00,
2013-02-26 22:35:00,30.9,26.9,30.17,NNW,337,6.3,-999.0,85,-99.99,,,0.10,Acu-Link.com,2013-02-27 03:35:00,
2013-02-26 22:50:00,30.9,26.6,30.16,NW,315,5.8,-999.0,84,-99.99,,,0.10,Acu-Link.com,2013-02-27 03:50:00,
2013-02-26 23:06:00,30.9,26.6,30.15,NW,315,5.8,-999.0,84,-99.99,,,0.10,Acu-Link.com,2013-02-27 04:06:00,
2013-02-26 23:21:00,31.1,26.8,30.13,NE,45,2.7,-999.0,84,-99.99,,,0.10,Acu-Link.com,2013-02-27 04:21:00,
2013-02-26 23:36:00,31.3,26.7,30.13,NNW,337,4.7,-999.0,83,-99.99,,,0.10,Acu-Link.com,2013-02-27 04:36:00,
2013-02-26 23:51:00,31.1,26.6,30.13,NE,45,4.2,-999.0,83,-99.99,,,0.10,Acu-Link.com,2013-02-27 04:51:00,